Weather History for Orlando, FL

Change the Weather History Date:

Wednesday, November 28, 2012

  Actual Average Record
Temperature  
Mean Temperature 60 °F -  
Max Temperature 66 °F 73 °F 82 °F (2003)
Min Temperature 55 °F 55 °F 39 °F (2013)
Degree Days  
Heating Degree Days 4    
Growing Degree Days 10 (Base 50)    
Moisture  
Dew Point 55 °F    
Average Humidity 82    
Maximum Humidity 90    
Minimum Humidity 66    
Precipitation  
Precipitation 0.00 in - - ()
Sea Level Pressure  
Sea Level Pressure 30.24 in    
Wind  
Wind Speed 6 mph (North)    
Max Wind Speed 13 mph    
Max Gust Speed 17 mph    
Visibility 10 miles    
Events      
Averages and records for this station are not official NWS values.
T = Trace of Precipitation, MM = Missing Value Source: NWS Daily Summary

Daily Weather History Graph

Daily Weather History Graph

Search for Another Location

Airport:

Trip Planner

Search our weather history database for the weather conditions in past years. The results will help you decide how hot, cold, wet, or windy it might be!

Date:

Astronomy

Nov. 28, 2012 Rise Set
Actual Time 6:58 AM EST 5:28 PM EST
Civil Twilight 6:33 AM EST 5:53 PM EST
Nautical Twilight 6:04 AM EST 6:22 PM EST
Astronomical Twilight 5:35 AM EST 6:51 PM EST
Moon 5:42 PM EST 6:54 AM EST
Length of Visible Light 11h 20m
Length of Day
10h 29m
Full, 100% of the Moon is Illuminated
Nov 28
Full
Dec 6
Last Quarter
Dec 13
New
Dec 20
First Quarter
Dec 28
Full

Hourly Weather History & Observations

Time (EST) Temp. Dew Point Humidity Pressure Visibility Wind Dir Wind Speed Gust Speed Precip Events Conditions
12:53 AM 66.0 °F 59.0 °F 78% 30.14 in 10.0 mi Calm Calm - N/A   Partly Cloudy
1:53 AM 63.0 °F 57.9 °F 84% 30.15 in 10.0 mi Calm Calm - N/A   Clear
2:53 AM 64.0 °F 59.0 °F 84% 30.16 in 10.0 mi NNW 4.6 mph - N/A   Overcast
3:53 AM 63.0 °F 59.0 °F 87% 30.17 in 10.0 mi North 5.8 mph - N/A   Mostly Cloudy
4:53 AM 62.1 °F 59.0 °F 90% 30.14 in 10.0 mi North 6.9 mph - N/A   Clear
5:53 AM 61.0 °F 57.9 °F 90% 30.16 in 10.0 mi North 4.6 mph - N/A   Clear
6:53 AM 60.1 °F 57.0 °F 90% 30.19 in 10.0 mi North 5.8 mph - N/A   Clear
7:53 AM 60.1 °F 57.0 °F 90% 30.21 in 10.0 mi North 9.2 mph - N/A   Clear
8:34 AM 60.8 °F 55.4 °F 82% 30.22 in 10.0 mi North 8.1 mph - N/A   Partly Cloudy
8:53 AM 62.1 °F 55.9 °F 80% 30.24 in 10.0 mi North 11.5 mph - N/A   Partly Cloudy
9:32 AM 62.6 °F 55.4 °F 77% 30.25 in 10.0 mi NNE 6.9 mph - N/A   Mostly Cloudy
9:53 AM 62.1 °F 55.9 °F 80% 30.27 in 10.0 mi North 10.4 mph - N/A   Mostly Cloudy
10:53 AM 61.0 °F 55.9 °F 83% 30.29 in 10.0 mi North 10.4 mph - N/A   Overcast
11:53 AM 63.0 °F 55.9 °F 78% 30.28 in 10.0 mi North 8.1 mph - N/A   Overcast
12:53 PM 64.0 °F 55.0 °F 73% 30.25 in 10.0 mi North 11.5 mph - N/A   Overcast
1:00 PM 64.4 °F 55.4 °F 73% 30.24 in 10.0 mi North 12.7 mph - N/A   Overcast
1:53 PM 66.9 °F 55.0 °F 66% 30.23 in 10.0 mi North 12.7 mph - N/A   Mostly Cloudy
2:53 PM 66.0 °F 55.0 °F 68% 30.24 in 10.0 mi North 12.7 mph 17.3 mph N/A   Overcast
3:53 PM 64.0 °F 55.0 °F 73% 30.24 in 10.0 mi North 10.4 mph - N/A   Overcast
4:53 PM 63.0 °F 54.0 °F 72% 30.25 in 10.0 mi NNE 11.5 mph - N/A   Overcast
5:53 PM 61.0 °F 54.0 °F 78% 30.26 in 10.0 mi North 11.5 mph - N/A   Overcast
6:53 PM 59.0 °F 53.1 °F 81% 30.28 in 10.0 mi North 8.1 mph - N/A   Mostly Cloudy
7:09 PM 59.0 °F 53.6 °F 82% 30.26 in 10.0 mi North 8.1 mph - N/A   Scattered Clouds
7:53 PM 57.9 °F 53.1 °F 84% 30.28 in 10.0 mi North 8.1 mph - N/A   Scattered Clouds
8:04 PM 57.2 °F 53.6 °F 88% 30.27 in 10.0 mi NNW 8.1 mph - N/A   Mostly Cloudy
8:20 PM 57.2 °F 53.6 °F 88% 30.27 in 10.0 mi North 8.1 mph - N/A   Scattered Clouds
8:53 PM 57.0 °F 53.1 °F 87% 30.29 in 9.0 mi North 6.9 mph - N/A   Partly Cloudy
9:25 PM 55.4 °F 51.8 °F 88% 30.28 in 9.0 mi NNW 8.1 mph - N/A   Partly Cloudy
9:53 PM 55.9 °F 52.0 °F 87% 30.30 in 9.0 mi NNW 9.2 mph - N/A   Partly Cloudy
10:35 PM 55.4 °F 51.8 °F 88% 30.28 in 9.0 mi North 9.2 mph - N/A   Partly Cloudy
10:53 PM 55.0 °F 52.0 °F 89% 30.30 in 9.0 mi North 9.2 mph - N/A   Partly Cloudy
11:53 PM 55.0 °F 52.0 °F 89% 30.28 in 9.0 mi North 9.2 mph - N/A   Partly Cloudy